Newport Airport, OR

2:34 PM PDT on July 22, 2017 (GMT -0700)
Newport Municipal

Weather History for KONP - February, 2013

Change the Weather History Date:

Saturday, February 2, 2013

  Actual Average Record
Temperature  
Mean Temperature 52 °F -  
Max Temperature 59 °F 50 °F 64 °F (2005)
Min Temperature 44 °F 39 °F 33 °F (2009)
Degree Days  
Heating Degree Days 14    
Growing Degree Days 2 (Base 50)    
Moisture  
Dew Point 41 °F    
Average Humidity 78    
Maximum Humidity 93    
Minimum Humidity 51    
Precipitation  
Precipitation 0.00 in - - ()
Sea Level Pressure  
Sea Level Pressure 30.29 in    
Wind  
Wind Speed 8 mph (SSE)    
Max Wind Speed 15 mph    
Max Gust Speed 22 mph    
Visibility 8 miles    
Events      
Averages and records for this station are not official NWS values.
T = Trace of Precipitation, MM = Missing Value Source: NWS Daily Summary

Daily Weather History Graph

Daily Weather History Graph

Search for Another Location

Airport or City:

Trip Planner

Search our weather history database for the weather conditions in past years. The results will help you decide how hot, cold, wet, or windy it might be!

Date:

Astronomy

Feb. 02, 2013 Rise Set
Actual Time 7:33 AM PST 5:27 PM PST
Civil Twilight 7:02 AM PST 5:58 PM PST
Nautical Twilight 6:27 AM PST 6:32 PM PST
Astronomical Twilight 5:53 AM PST 7:07 PM PST
Moon No Moon Rise 10:28 AM PST (2/2)
Length of Visible Light 10h 55m
Length of Day
9h 53m
Waning Gibbous, 58% of the Moon is Illuminated
Feb 2
Waning Gibbous
Feb 3
Last Quarter
Feb 9
New
Feb 17
First Quarter
Feb 25
Full

Hourly Weather History & Observations

Time (PST) Temp. Windchill Dew Point Humidity Pressure Visibility Wind Dir Wind Speed Gust Speed Precip Events Conditions
12:15 AM 46.4 °F 45.2 °F 41.0 °F 81% 30.25 in 10.0 mi ESE 3.5 mph - N/A   Clear
12:35 AM 46.4 °F 41.9 °F 41.0 °F 81% 30.25 in 10.0 mi East 9.2 mph - N/A   Clear
1:15 AM 46.4 °F 43.5 °F 41.0 °F 81% 30.25 in 10.0 mi East 5.8 mph - N/A   Clear
1:35 AM 46.4 °F 42.4 °F 41.0 °F 81% 30.25 in 10.0 mi East 8.1 mph - N/A   Clear
1:55 AM 46.4 °F 43.5 °F 39.2 °F 76% 30.25 in 10.0 mi East 5.8 mph - N/A   Clear
2:15 AM 46.4 °F 41.9 °F 39.2 °F 76% 30.26 in 10.0 mi East 9.2 mph - N/A   Clear
2:35 AM 46.4 °F 42.9 °F 39.2 °F 76% 30.26 in 10.0 mi East 6.9 mph - N/A   Clear
2:55 AM 44.6 °F 39.2 °F 39.2 °F 81% 30.25 in 10.0 mi East 10.4 mph - N/A   Clear
3:15 AM 44.6 °F 40.7 °F 39.2 °F 81% - 10.0 mi East 6.9 mph - N/A   Clear
3:35 AM 44.6 °F 40.7 °F 37.4 °F 76% 30.25 in 10.0 mi East 6.9 mph - N/A   Clear
4:15 AM 44.6 °F 39.2 °F 37.4 °F 76% 30.24 in 10.0 mi East 10.4 mph - N/A   Clear
4:35 AM 44.6 °F 38.8 °F 37.4 °F 76% 30.24 in 10.0 mi East 11.5 mph - N/A   Clear
4:55 AM 44.6 °F 40.2 °F 37.4 °F 76% 30.24 in 10.0 mi East 8.1 mph - N/A   Clear
5:15 AM 44.6 °F 39.7 °F 37.4 °F 76% 30.24 in 10.0 mi East 9.2 mph - N/A   Clear
5:35 AM 44.6 °F 39.7 °F 37.4 °F 76% 30.24 in 10.0 mi East 9.2 mph - N/A   Clear
5:55 AM 44.6 °F 40.2 °F 37.4 °F 76% 30.24 in 10.0 mi East 8.1 mph - N/A   Clear
6:15 AM 44.6 °F 40.2 °F 37.4 °F 76% 30.24 in 10.0 mi East 8.1 mph - N/A   Clear
6:35 AM 44.6 °F 40.2 °F 37.4 °F 76% 30.24 in 10.0 mi East 8.1 mph - N/A   Clear
6:55 AM 44.6 °F 39.7 °F 37.4 °F 76% 30.24 in 10.0 mi East 9.2 mph - N/A   Clear
7:15 AM 44.6 °F 40.2 °F 37.4 °F 76% 30.25 in 10.0 mi East 8.1 mph - N/A   Clear
7:35 AM 44.6 °F 39.2 °F 37.4 °F 76% 30.25 in 10.0 mi East 10.4 mph - N/A   Clear
7:55 AM 44.6 °F 39.2 °F 37.4 °F 76% 30.26 in 10.0 mi East 10.4 mph - N/A   Clear
8:15 AM 44.6 °F 40.2 °F 35.6 °F 71% 30.27 in 10.0 mi East 8.1 mph - N/A   Clear
8:35 AM 44.6 °F 39.7 °F 37.4 °F 76% 30.27 in 10.0 mi East 9.2 mph - N/A   Clear
8:55 AM 44.6 °F 39.7 °F 37.4 °F 76% 30.27 in 10.0 mi East 9.2 mph - N/A   Clear
9:15 AM 44.6 °F 39.2 °F 37.4 °F 76% 30.28 in 10.0 mi East 10.4 mph - N/A   Clear
9:35 AM 46.4 °F 41.1 °F 37.4 °F 71% 30.28 in 10.0 mi East 11.5 mph - N/A   Clear
9:55 AM 48.2 °F - 39.2 °F 71% 30.29 in 10.0 mi East 9.2 mph - N/A   Clear
10:15 AM 50.0 °F - 41.0 °F 71% 30.29 in 10.0 mi East 3.5 mph - N/A   Clear
10:35 AM 51.8 °F - 41.0 °F 67% 30.29 in 10.0 mi ESE 3.5 mph - N/A   Clear
10:55 AM 53.6 °F - 41.0 °F 62% 30.29 in 10.0 mi ESE 5.8 mph - N/A   Clear
11:15 AM 55.4 °F - 41.0 °F 58% 30.30 in 10.0 mi ESE 5.8 mph - N/A   Clear
11:35 AM 57.2 °F - 41.0 °F 55% 30.30 in 10.0 mi ESE 3.5 mph - N/A   Clear
11:55 AM 59.0 °F - 41.0 °F 51% 30.29 in 10.0 mi ESE 4.6 mph - N/A   Clear
12:15 PM 59.0 °F - 41.0 °F 51% 30.29 in 10.0 mi SSE 5.8 mph - N/A   Clear
12:35 PM 59.0 °F - 41.0 °F 51% 30.29 in 10.0 mi SW 5.8 mph - N/A   Clear
12:55 PM 57.2 °F - 42.8 °F 59% 30.29 in 4.0 mi SSW 6.9 mph - N/A   Haze
1:15 PM 55.4 °F - 42.8 °F 63% 30.29 in 3.0 mi SW 5.8 mph - N/A   Haze
1:35 PM 55.4 °F - 42.8 °F 63% 30.29 in 2.5 mi SW 8.1 mph - N/A   Haze
1:55 PM 55.4 °F - 42.8 °F 63% - 4.0 mi SW 9.2 mph - N/A   Haze
2:15 PM 55.4 °F - 42.8 °F 63% 30.28 in 4.0 mi SSW 11.5 mph 16.1 mph N/A   Haze
2:35 PM 55.4 °F - 42.8 °F 63% 30.29 in 4.0 mi SSW 11.5 mph 16.1 mph N/A   Haze
2:55 PM 53.6 °F - 42.8 °F 67% 30.29 in 4.0 mi SSW 10.4 mph - N/A   Haze
3:15 PM 53.6 °F - 42.8 °F 67% 30.29 in 5.0 mi SW 13.8 mph 17.3 mph N/A   Haze
3:35 PM 51.8 °F - 44.6 °F 76% 30.30 in 7.0 mi SSW 15.0 mph 21.9 mph N/A   Clear
3:55 PM 51.8 °F - 44.6 °F 76% 30.30 in 7.0 mi SSW 15.0 mph 19.6 mph N/A   Clear
4:15 PM 50.0 °F - 44.6 °F 82% 30.31 in 4.0 mi SSW 11.5 mph - N/A   Haze
4:35 PM 50.0 °F - 46.4 °F 87% 30.31 in 4.0 mi SW 11.5 mph - N/A   Mostly Cloudy
4:55 PM 46.4 °F 41.1 °F 44.6 °F 93% 30.31 in 5.0 mi SW 11.5 mph - N/A   Overcast
5:15 PM 46.4 °F 41.5 °F 44.6 °F 93% 30.30 in 5.0 mi SSW 10.4 mph - N/A   Overcast
5:35 PM 46.4 °F 41.5 °F 44.6 °F 93% 30.30 in 3.0 mi SSW 10.4 mph - N/A   Overcast
5:55 PM 46.4 °F 41.5 °F 44.6 °F 93% 30.31 in 5.0 mi SW 10.4 mph - N/A   Overcast
6:15 PM 46.4 °F 41.1 °F 44.6 °F 93% 30.31 in 7.0 mi SW 11.5 mph - N/A   Overcast
6:35 PM 46.4 °F 41.5 °F 44.6 °F 93% 30.31 in 7.0 mi SSW 10.4 mph - N/A   Overcast
6:55 PM 46.4 °F 41.9 °F 44.6 °F 93% 30.30 in 7.0 mi South 9.2 mph - N/A   Overcast
7:15 PM 46.4 °F 41.5 °F 44.6 °F 93% 30.32 in 5.0 mi SW 10.4 mph - N/A   Overcast
7:35 PM 46.4 °F 41.5 °F 44.6 °F 93% 30.32 in 7.0 mi SW 10.4 mph - N/A   Overcast
7:55 PM 46.4 °F 41.9 °F 44.6 °F 93% 30.32 in 7.0 mi SSW 9.2 mph - N/A   Overcast
8:15 PM 46.4 °F 41.9 °F 44.6 °F 93% 30.32 in 5.0 mi SSW 9.2 mph - N/A   Overcast
8:35 PM 46.4 °F 43.5 °F 44.6 °F 93% 30.32 in 5.0 mi SSW 5.8 mph - N/A   Overcast
8:55 PM 46.4 °F 42.9 °F 44.6 °F 93% 30.32 in 5.0 mi SSW 6.9 mph - N/A   Overcast
9:15 PM 46.4 °F 42.9 °F 44.6 °F 93% 30.32 in 5.0 mi SSW 6.9 mph - N/A   Overcast
9:35 PM 46.4 °F 42.9 °F 44.6 °F 93% 30.33 in 5.0 mi SW 6.9 mph - N/A   Overcast
9:55 PM 46.4 °F 42.9 °F 42.8 °F 87% 30.33 in 5.0 mi SW 6.9 mph - N/A   Overcast
10:15 PM 46.4 °F 42.4 °F 42.8 °F 87% 30.34 in 5.0 mi SW 8.1 mph - N/A   Overcast
10:35 PM 46.4 °F 42.4 °F 42.8 °F 87% 30.36 in 5.0 mi SW 8.1 mph - N/A   Overcast
10:55 PM 46.4 °F 44.3 °F 42.8 °F 87% 30.36 in 7.0 mi SW 4.6 mph - N/A   Overcast
11:35 PM 46.4 °F 43.5 °F 44.6 °F 93% 30.35 in 4.0 mi SW 5.8 mph - N/A   Overcast
11:55 PM 46.4 °F 44.3 °F 42.8 °F 87% 30.34 in 5.0 mi South 4.6 mph - N/A   Overcast